Starlink 33635

operational
NORAD ID: 63065 Int'l Des: 2025-035 Owner: SPXS Country: US Constellation: starlink
LEOCIRCULAR

About Starlink 33635

Description loading...

Live Position

Loading 3D Globe...

Upcoming Passes

Altitude History

Altitude vs Time

uPlot chart will show altitude changes over time

Two-Line Element Set

1 63065U 25035P 26048.63941105 .00021866 00000-0 80123-3 0 9994
2 63065 42.9986 260.2841 0001212 209.6093 150.4691 15.27601462 56661
Epoch: Feb 17, 2026 • Age: 8 hours

Current Status

Altitude 486.5 km
Velocity 7.63 km/s
Sub-Earth Point 43.15°N, 152.06°W
Launch Date Feb 21, 2025
Age 0.9 years
Type internet

Technical Details

Classification Payload
Mass 575.00 kg
Dry Mass 530.00 kg
Total Mass 575.00 kg
Length 0.30 m
Diameter 4.10 m
Span 29.00 m
Shape Box + pan
Manufacturer SPXS
Bus Type Starlink V2MO
Phase Status In Orbit
Owner/State SPXS/US

Large Constellations

Loading constellations...